Time,TemperatureF,DewpointF,PressureIn,WindDirection,WindDirectionDegrees,WindSpeedMPH,WindSpeedGustMPH,Humidity,HourlyPrecipIn,Conditions,Clouds,dailyrainin,SoftwareType,DateUTC
2013-01-20 00:00:00,45.3,25.6,29.59,South,180,1.0,-999.0,45,0.00,,,0.01,MetarLogicWeatherSta,2013-01-20 05:00:00,
2013-01-20 00:05:00,45.3,25.7,29.59,South,180,3.0,-999.0,45,0.00,,,0.00,MetarLogicWeatherSta,2013-01-20 05:05:00,
2013-01-20 00:10:00,45.2,25.4,29.59,SSW,202,3.0,-999.0,45,0.00,,,0.00,MetarLogicWeatherSta,2013-01-20 05:10:00,
2013-01-20 00:15:00,45.2,25.6,29.59,South,180,4.0,-999.0,45,0.00,,,0.00,MetarLogicWeatherSta,2013-01-20 05:15:00,
2013-01-20 00:20:00,45.2,25.9,29.58,SSE,157,6.0,-999.0,46,0.00,,,0.00,MetarLogicWeatherSta,2013-01-20 05:20:00,
2013-01-20 00:25:00,45.2,25.7,29.58,SSW,202,3.0,-999.0,46,0.00,,,0.00,MetarLogicWeatherSta,2013-01-20 05:25:00,
2013-01-20 00:30:00,45.2,25.9,29.58,South,180,4.0,-999.0,46,0.00,,,0.00,MetarLogicWeatherSta,2013-01-20 05:30:00,
2013-01-20 00:35:00,44.8,25.7,29.57,SSE,157,1.0,-999.0,46,0.00,,,0.00,MetarLogicWeatherSta,2013-01-20 05:35:00,
2013-01-20 00:40:00,44.8,25.9,29.57,SSW,202,1.0,-999.0,47,0.00,,,0.00,MetarLogicWeatherSta,2013-01-20 05:40:00,
2013-01-20 00:45:00,44.8,25.9,29.57,SSW,202,9.0,-999.0,47,0.00,,,0.00,MetarLogicWeatherSta,2013-01-20 05:45:00,
2013-01-20 00:50:00,45.2,26.6,29.57,SSE,157,0.0,-999.0,47,0.00,,,0.00,MetarLogicWeatherSta,2013-01-20 05:50:00,
2013-01-20 00:55:00,45.1,26.2,29.56,SSW,202,3.0,-999.0,47,0.00,,,0.00,MetarLogicWeatherSta,2013-01-20 05:55:00,
2013-01-20 01:00:00,45.0,26.5,29.56,SE,135,0.0,-999.0,47,0.00,,,0.00,MetarLogicWeatherSta,2013-01-20 06:00:00,
2013-01-20 01:05:00,44.8,26.2,29.55,South,180,1.0,-999.0,47,0.00,,,0.00,MetarLogicWeatherSta,2013-01-20 06:05:00,
2013-01-20 01:10:00,44.7,26.3,29.55,SE,135,1.0,-999.0,48,0.00,,,0.00,MetarLogicWeatherSta,2013-01-20 06:10:00,
2013-01-20 01:15:00,44.7,26.6,29.55,SSW,202,1.0,-999.0,48,0.00,,,0.00,MetarLogicWeatherSta,2013-01-20 06:15:00,
2013-01-20 01:20:00,44.8,26.9,29.55,South,180,1.0,-999.0,49,0.00,,,0.00,MetarLogicWeatherSta,2013-01-20 06:20:00,
2013-01-20 01:25:00,44.8,27.0,29.55,ENE,67,4.0,-999.0,49,0.00,,,0.00,MetarLogicWeatherSta,2013-01-20 06:25:00,
2013-01-20 01:30:00,45.1,27.2,29.54,SSE,157,6.0,-999.0,49,0.00,,,0.00,MetarLogicWeatherSta,2013-01-20 06:30:00,
2013-01-20 01:35:00,45.2,27.1,29.53,SSW,202,3.0,-999.0,48,0.00,,,0.00,MetarLogicWeatherSta,2013-01-20 06:35:00,
2013-01-20 01:40:00,45.3,27.0,29.52,South,180,1.0,-999.0,48,0.00,,,0.00,MetarLogicWeatherSta,2013-01-20 06:40:00,
2013-01-20 01:45:00,45.3,27.0,29.52,East,90,1.0,-999.0,48,0.00,,,0.00,MetarLogicWeatherSta,2013-01-20 06:45:00,
2013-01-20 01:50:00,45.5,27.2,29.53,SSE,157,3.0,-999.0,48,0.00,,,0.00,MetarLogicWeatherSta,2013-01-20 06:50:00,
2013-01-20 01:55:00,45.0,27.1,29.52,SSW,202,1.0,-999.0,49,0.00,,,0.00,MetarLogicWeatherSta,2013-01-20 06:55:00,
2013-01-20 02:00:00,45.2,27.3,29.52,SW,225,4.0,-999.0,49,0.00,,,0.00,MetarLogicWeatherSta,2013-01-20 07:00:00,
2013-01-20 02:05:00,45.3,27.7,29.52,WNW,292,1.0,-999.0,49,0.00,,,0.00,MetarLogicWeatherSta,2013-01-20 07:05:00,
2013-01-20 02:10:00,45.4,27.5,29.52,SSW,202,4.0,-999.0,49,0.00,,,0.00,MetarLogicWeatherSta,2013-01-20 07:10:00,
2013-01-20 02:15:00,45.4,27.8,29.52,SW,225,1.0,-999.0,49,0.00,,,0.00,MetarLogicWeatherSta,2013-01-20 07:15:00,
2013-01-20 02:20:00,45.3,27.7,29.51,SW,225,3.0,-999.0,49,0.00,,,0.00,MetarLogicWeatherSta,2013-01-20 07:20:00,
2013-01-20 02:25:00,45.0,27.8,29.52,NNW,337,3.0,-999.0,50,0.00,,,0.00,MetarLogicWeatherSta,2013-01-20 07:25:00,
2013-01-20 02:30:00,44.8,28.0,29.51,South,180,4.0,-999.0,51,0.00,,,0.00,MetarLogicWeatherSta,2013-01-20 07:30:00,
2013-01-20 02:35:00,44.9,28.4,29.50,South,180,6.0,-999.0,51,0.00,,,0.00,MetarLogicWeatherSta,2013-01-20 07:35:00,
2013-01-20 02:40:00,44.9,28.4,29.50,South,180,1.0,-999.0,51,0.00,,,0.00,MetarLogicWeatherSta,2013-01-20 07:40:00,
2013-01-20 02:45:00,45.0,28.6,29.50,SW,225,4.0,-999.0,52,0.00,,,0.00,MetarLogicWeatherSta,2013-01-20 07:45:00,
2013-01-20 02:50:00,45.4,28.9,29.49,SSE,157,1.0,-999.0,51,0.00,,,0.00,MetarLogicWeatherSta,2013-01-20 07:50:00,
2013-01-20 02:55:00,45.6,29.0,29.50,SSE,157,10.0,-999.0,52,0.00,,,0.00,MetarLogicWeatherSta,2013-01-20 07:55:00,
2013-01-20 03:00:00,45.7,28.8,29.49,South,180,3.0,-999.0,51,0.00,,,0.00,MetarLogicWeatherSta,2013-01-20 08:00:00,
2013-01-20 03:05:00,45.6,29.0,29.49,SSE,157,4.0,-999.0,52,0.00,,,0.00,MetarLogicWeatherSta,2013-01-20 08:05:00,
2013-01-20 03:10:00,45.7,29.1,29.48,SSE,157,7.0,-999.0,52,0.00,,,0.00,MetarLogicWeatherSta,2013-01-20 08:10:00,
2013-01-20 03:15:00,46.2,29.2,29.48,South,180,6.0,-999.0,51,0.00,,,0.00,MetarLogicWeatherSta,2013-01-20 08:15:00,
2013-01-20 03:20:00,46.0,29.4,29.48,SW,225,7.0,-999.0,52,0.00,,,0.00,MetarLogicWeatherSta,2013-01-20 08:20:00,
2013-01-20 03:25:00,45.9,29.1,29.47,SSW,202,9.0,-999.0,51,0.00,,,0.00,MetarLogicWeatherSta,2013-01-20 08:25:00,
2013-01-20 03:30:00,46.3,29.6,29.47,WSW,247,4.0,-999.0,51,0.00,,,0.00,MetarLogicWeatherSta,2013-01-20 08:30:00,
2013-01-20 03:35:00,46.3,29.5,29.47,SSE,157,10.0,-999.0,51,0.00,,,0.00,MetarLogicWeatherSta,2013-01-20 08:35:00,
2013-01-20 03:40:00,46.2,29.3,29.46,WSW,247,3.0,-999.0,51,0.00,,,0.00,MetarLogicWeatherSta,2013-01-20 08:40:00,
2013-01-20 03:45:00,46.5,29.7,29.46,South,180,10.0,-999.0,51,0.00,,,0.00,MetarLogicWeatherSta,2013-01-20 08:45:00,
2013-01-20 03:50:00,46.4,29.8,29.46,WSW,247,3.0,-999.0,52,0.00,,,0.00,MetarLogicWeatherSta,2013-01-20 08:50:00,
2013-01-20 03:55:00,46.3,29.7,29.45,SSE,157,3.0,-999.0,52,0.00,,,0.00,MetarLogicWeatherSta,2013-01-20 08:55:00,
2013-01-20 04:00:00,46.4,29.8,29.46,South,180,6.0,-999.0,52,0.00,,,0.00,MetarLogicWeatherSta,2013-01-20 09:00:00,
2013-01-20 04:05:00,46.1,29.7,29.46,SSE,157,9.0,-999.0,52,0.00,,,0.00,MetarLogicWeatherSta,2013-01-20 09:05:00,
2013-01-20 04:10:00,46.3,29.9,29.45,SE,135,6.0,-999.0,52,0.00,,,0.00,MetarLogicWeatherSta,2013-01-20 09:10:00,
2013-01-20 04:15:00,46.3,29.7,29.45,SSE,157,1.0,-999.0,52,0.00,,,0.00,MetarLogicWeatherSta,2013-01-20 09:15:00,
2013-01-20 04:20:00,46.2,30.0,29.45,SSE,157,6.0,-999.0,52,0.00,,,0.00,MetarLogicWeatherSta,2013-01-20 09:20:00,
2013-01-20 04:25:00,46.2,30.0,29.44,South,180,4.0,-999.0,52,0.00,,,0.00,MetarLogicWeatherSta,2013-01-20 09:25:00,
2013-01-20 04:30:00,46.3,31.3,29.44,SSW,202,1.0,-999.0,55,0.00,,,0.00,MetarLogicWeatherSta,2013-01-20 09:30:00,
2013-01-20 04:35:00,46.0,31.3,29.44,South,180,3.0,-999.0,56,0.00,,,0.00,MetarLogicWeatherSta,2013-01-20 09:35:00,
2013-01-20 04:40:00,45.8,31.7,29.45,South,180,7.0,-999.0,57,0.00,,,0.00,MetarLogicWeatherSta,2013-01-20 09:40:00,
2013-01-20 04:45:00,45.4,32.7,29.46,NW,315,3.0,-999.0,60,0.00,,,0.00,MetarLogicWeatherSta,2013-01-20 09:45:00,
2013-01-20 04:50:00,45.0,35.0,29.47,WSW,242,6.5,19.0,67,0.00,,,0.00,MetarLogicWeatherSta,2013-01-20 09:50:00,
2013-01-20 04:55:00,42.9,35.6,29.48,SW,225,9.0,-999.0,75,0.00,,,0.00,MetarLogicWeatherSta,2013-01-20 09:55:00,
2013-01-20 05:00:00,41.7,35.7,29.47,SSW,202,4.0,-999.0,78,0.00,,,0.00,MetarLogicWeatherSta,2013-01-20 10:00:00,
2013-01-20 05:05:00,40.8,35.4,29.47,South,180,7.0,-999.0,80,0.00,,,0.00,MetarLogicWeatherSta,2013-01-20 10:05:00,
2013-01-20 05:10:00,40.5,34.2,29.46,SW,225,4.0,-999.0,77,0.00,,,0.00,MetarLogicWeatherSta,2013-01-20 10:10:00,
2013-01-20 05:15:00,40.3,33.9,29.46,South,180,9.0,-999.0,77,0.00,,,0.00,MetarLogicWeatherSta,2013-01-20 10:15:00,
2013-01-20 05:20:00,40.5,33.7,29.47,SW,225,3.0,-999.0,76,0.01,,,0.01,MetarLogicWeatherSta,2013-01-20 10:20:00,
2013-01-20 05:25:00,40.6,33.7,29.47,South,180,0.0,-999.0,76,0.01,,,0.01,MetarLogicWeatherSta,2013-01-20 10:25:00,
2013-01-20 05:30:00,40.7,33.8,29.47,SSW,202,4.0,-999.0,76,0.01,,,0.01,MetarLogicWeatherSta,2013-01-20 10:30:00,
2013-01-20 05:35:00,40.7,33.3,29.48,ESE,112,3.0,-999.0,74,0.01,,,0.01,MetarLogicWeatherSta,2013-01-20 10:35:00,
2013-01-20 05:40:00,40.9,32.9,29.48,SSW,202,6.0,-999.0,72,0.01,,,0.01,MetarLogicWeatherSta,2013-01-20 10:40:00,
2013-01-20 05:45:00,41.6,31.5,29.47,SW,225,4.0,-999.0,67,0.01,,,0.01,MetarLogicWeatherSta,2013-01-20 10:45:00,
2013-01-20 05:50:00,41.6,31.6,29.48,SW,225,9.0,-999.0,67,0.01,,,0.01,MetarLogicWeatherSta,2013-01-20 10:50:00,
2013-01-20 05:55:00,41.2,31.0,29.48,SW,225,9.0,-999.0,66,0.01,,,0.01,MetarLogicWeatherSta,2013-01-20 10:55:00,
2013-01-20 06:00:00,41.2,31.0,29.48,SSW,202,4.0,-999.0,66,0.01,,,0.01,MetarLogicWeatherSta,2013-01-20 11:00:00,
2013-01-20 06:05:00,40.8,30.4,29.48,SSW,202,3.0,-999.0,66,0.01,,,0.01,MetarLogicWeatherSta,2013-01-20 11:05:00,
2013-01-20 06:10:00,40.7,29.9,29.48,WSW,247,4.0,-999.0,65,0.01,,,0.01,MetarLogicWeatherSta,2013-01-20 11:10:00,
2013-01-20 06:15:00,40.4,28.6,29.49,East,90,3.0,-999.0,62,0.01,,,0.01,MetarLogicWeatherSta,2013-01-20 11:15:00,
2013-01-20 06:20:00,40.2,28.8,29.50,WSW,247,9.0,-999.0,63,0.00,,,0.01,MetarLogicWeatherSta,2013-01-20 11:20:00,
2013-01-20 06:25:00,40.0,27.1,29.50,SW,225,9.0,-999.0,59,0.00,,,0.01,MetarLogicWeatherSta,2013-01-20 11:25:00,
2013-01-20 06:30:00,39.7,26.8,29.51,South,180,3.0,-999.0,59,0.00,,,0.01,MetarLogicWeatherSta,2013-01-20 11:30:00,
2013-01-20 06:35:00,39.3,26.7,29.50,South,180,4.0,-999.0,60,0.00,,,0.01,MetarLogicWeatherSta,2013-01-20 11:35:00,
2013-01-20 06:40:00,38.8,26.8,29.50,SSW,202,12.0,-999.0,61,0.00,,,0.01,MetarLogicWeatherSta,2013-01-20 11:40:00,
2013-01-20 06:45:00,38.6,26.7,29.52,SE,135,6.0,-999.0,61,0.00,,,0.01,MetarLogicWeatherSta,2013-01-20 11:45:00,
2013-01-20 06:50:00,38.8,26.6,29.52,South,180,6.0,-999.0,61,0.00,,,0.01,MetarLogicWeatherSta,2013-01-20 11:50:00,
2013-01-20 06:55:00,38.6,26.8,29.52,SW,225,7.0,-999.0,62,0.00,,,0.01,MetarLogicWeatherSta,2013-01-20 11:55:00,
2013-01-20 07:00:00,38.6,27.7,29.53,WSW,247,6.0,-999.0,64,0.00,,,0.01,MetarLogicWeatherSta,2013-01-20 12:00:00,
2013-01-20 07:05:00,37.7,28.4,29.55,SW,225,6.0,-999.0,68,0.00,,,0.01,MetarLogicWeatherSta,2013-01-20 12:05:00,
2013-01-20 07:10:00,37.0,28.5,29.54,SE,135,3.0,-999.0,70,0.00,,,0.01,MetarLogicWeatherSta,2013-01-20 12:10:00,
2013-01-20 07:15:00,36.5,28.2,29.55,SSW,202,1.0,-999.0,71,0.00,,,0.01,MetarLogicWeatherSta,2013-01-20 12:15:00,
2013-01-20 07:20:00,36.0,27.8,29.55,SW,225,6.0,-999.0,71,0.00,,,0.01,MetarLogicWeatherSta,2013-01-20 12:20:00,
2013-01-20 07:25:00,35.7,27.8,29.56,SSW,202,3.0,-999.0,72,0.00,,,0.01,MetarLogicWeatherSta,2013-01-20 12:25:00,
2013-01-20 07:30:00,35.8,26.4,29.56,SSW,202,4.0,-999.0,68,0.00,,,0.01,MetarLogicWeatherSta,2013-01-20 12:30:00,
2013-01-20 07:35:00,36.0,24.7,29.57,SSW,202,12.0,-999.0,63,0.00,,,0.01,MetarLogicWeatherSta,2013-01-20 12:35:00,
2013-01-20 07:40:00,36.3,25.5,29.58,SSW,202,13.0,-999.0,64,0.00,,,0.01,MetarLogicWeatherSta,2013-01-20 12:40:00,
2013-01-20 07:45:00,35.8,24.1,29.59,South,180,9.0,-999.0,62,0.00,,,0.01,MetarLogicWeatherSta,2013-01-20 12:45:00,
2013-01-20 07:50:00,36.0,22.8,29.59,SSW,202,7.0,-999.0,58,0.00,,,0.01,MetarLogicWeatherSta,2013-01-20 12:50:00,
2013-01-20 07:55:00,35.7,22.4,29.60,WSW,247,9.0,-999.0,58,0.00,,,0.01,MetarLogicWeatherSta,2013-01-20 12:55:00,
2013-01-20 08:00:00,35.3,21.5,29.62,South,180,10.0,-999.0,56,0.00,,,0.01,MetarLogicWeatherSta,2013-01-20 13:00:00,
2013-01-20 08:05:00,34.5,20.5,29.63,SSW,202,12.0,-999.0,56,0.00,,,0.01,MetarLogicWeatherSta,2013-01-20 13:05:00,
2013-01-20 08:10:00,34.1,19.5,29.64,SSE,157,9.0,-999.0,54,0.00,,,0.01,MetarLogicWeatherSta,2013-01-20 13:10:00,
2013-01-20 08:15:00,33.1,17.7,29.65,SW,225,10.0,-999.0,52,0.00,,,0.01,MetarLogicWeatherSta,2013-01-20 13:15:00,
2013-01-20 08:20:00,32.5,17.9,29.66,SSW,202,3.0,-999.0,54,0.00,,,0.01,MetarLogicWeatherSta,2013-01-20 13:20:00,
2013-01-20 08:25:00,32.2,17.9,29.67,SW,225,7.0,-999.0,55,0.00,,,0.01,MetarLogicWeatherSta,2013-01-20 13:25:00,
2013-01-20 08:30:00,32.1,18.0,29.67,South,180,13.0,-999.0,55,0.00,,,0.01,MetarLogicWeatherSta,2013-01-20 13:30:00,
2013-01-20 08:35:00,31.8,18.4,29.68,SW,225,12.0,-999.0,57,0.00,,,0.01,MetarLogicWeatherSta,2013-01-20 13:35:00,
2013-01-20 08:40:00,31.7,18.8,29.69,SSW,202,10.0,-999.0,58,0.00,,,0.01,MetarLogicWeatherSta,2013-01-20 13:40:00,
2013-01-20 08:45:00,31.4,18.5,29.69,SSW,202,3.0,-999.0,58,0.00,,,0.01,MetarLogicWeatherSta,2013-01-20 13:45:00,
2013-01-20 08:50:00,31.3,18.8,29.70,WSW,247,6.0,-999.0,59,0.00,,,0.01,MetarLogicWeatherSta,2013-01-20 13:50:00,
2013-01-20 08:55:00,31.0,19.0,29.71,South,180,3.0,-999.0,60,0.00,,,0.01,MetarLogicWeatherSta,2013-01-20 13:55:00,
2013-01-20 09:00:00,30.9,18.9,29.71,South,180,4.0,-999.0,60,0.00,,,0.01,MetarLogicWeatherSta,2013-01-20 14:00:00,
2013-01-20 09:05:00,30.8,19.6,29.72,WSW,247,6.0,-999.0,62,0.00,,,0.01,MetarLogicWeatherSta,2013-01-20 14:05:00,
2013-01-20 09:10:00,30.3,21.5,29.73,SSW,202,7.0,-999.0,69,0.00,,,0.01,MetarLogicWeatherSta,2013-01-20 14:10:00,
2013-01-20 09:15:00,29.4,21.7,29.73,SW,225,7.0,-999.0,72,0.00,,,0.01,MetarLogicWeatherSta,2013-01-20 14:15:00,
2013-01-20 09:20:00,29.1,21.3,29.74,SSW,202,7.0,-999.0,72,0.00,,,0.01,MetarLogicWeatherSta,2013-01-20 14:20:00,
2013-01-20 09:25:00,28.6,21.6,29.75,SW,225,4.0,-999.0,75,0.00,,,0.01,MetarLogicWeatherSta,2013-01-20 14:25:00,
2013-01-20 09:30:00,28.7,21.1,29.75,SW,225,9.0,-999.0,72,0.00,,,0.01,MetarLogicWeatherSta,2013-01-20 14:30:00,
2013-01-20 09:35:00,28.7,20.4,29.75,SW,225,13.0,-999.0,70,0.00,,,0.01,MetarLogicWeatherSta,2013-01-20 14:35:00,
2013-01-20 09:40:00,28.9,19.7,29.75,SW,225,10.0,-999.0,68,0.00,,,0.01,MetarLogicWeatherSta,2013-01-20 14:40:00,
2013-01-20 09:45:00,29.0,19.2,29.75,WSW,247,7.0,-999.0,66,0.00,,,0.01,MetarLogicWeatherSta,2013-01-20 14:45:00,
2013-01-20 09:50:00,29.0,19.5,29.75,WSW,247,6.0,-999.0,67,0.00,,,0.01,MetarLogicWeatherSta,2013-01-20 14:50:00,
2013-01-20 09:55:00,29.0,19.3,29.76,SSW,202,4.0,-999.0,66,0.00,,,0.01,MetarLogicWeatherSta,2013-01-20 14:55:00,
2013-01-20 10:00:00,29.4,19.5,29.77,WSW,247,9.0,-999.0,66,0.00,,,0.01,MetarLogicWeatherSta,2013-01-20 15:00:00,
2013-01-20 10:05:00,29.3,19.5,29.78,SW,225,4.0,-999.0,66,0.00,,,0.01,MetarLogicWeatherSta,2013-01-20 15:05:00,
2013-01-20 10:10:00,29.1,18.2,29.78,WSW,247,3.0,-999.0,63,0.00,,,0.01,MetarLogicWeatherSta,2013-01-20 15:10:00,
2013-01-20 10:15:00,29.0,18.5,29.79,SW,225,4.0,-999.0,64,0.00,,,0.01,MetarLogicWeatherSta,2013-01-20 15:15:00,
2013-01-20 10:20:00,29.0,18.5,29.78,SW,225,6.0,-999.0,64,0.00,,,0.01,MetarLogicWeatherSta,2013-01-20 15:20:00,
2013-01-20 10:25:00,29.0,18.5,29.79,SW,225,6.0,-999.0,64,0.00,,,0.01,MetarLogicWeatherSta,2013-01-20 15:25:00,
2013-01-20 10:30:00,28.7,17.4,29.80,West,270,6.0,-999.0,62,0.00,,,0.01,MetarLogicWeatherSta,2013-01-20 15:30:00,
2013-01-20 10:35:00,28.6,16.8,29.80,SW,225,10.0,-999.0,61,0.00,,,0.01,MetarLogicWeatherSta,2013-01-20 15:35:00,
2013-01-20 10:40:00,28.7,16.3,29.80,South,180,1.0,-999.0,59,0.00,,,0.01,MetarLogicWeatherSta,2013-01-20 15:40:00,
2013-01-20 10:45:00,28.6,16.6,29.80,South,180,4.0,-999.0,60,0.00,,,0.01,MetarLogicWeatherSta,2013-01-20 15:45:00,
2013-01-20 10:50:00,29.0,17.0,29.80,SW,225,7.0,-999.0,60,0.00,,,0.01,MetarLogicWeatherSta,2013-01-20 15:50:00,
2013-01-20 10:55:00,29.2,16.2,29.80,SSW,202,7.0,-999.0,57,0.00,,,0.01,MetarLogicWeatherSta,2013-01-20 15:55:00,
2013-01-20 11:00:00,29.3,15.7,29.80,SW,225,7.0,-999.0,56,0.00,,,0.01,MetarLogicWeatherSta,2013-01-20 16:00:00,
2013-01-20 11:05:00,29.1,15.5,29.81,SSW,202,6.0,-999.0,56,0.00,,,0.01,MetarLogicWeatherSta,2013-01-20 16:05:00,
2013-01-20 11:10:00,28.8,15.4,29.82,SW,225,6.0,-999.0,56,0.00,,,0.01,MetarLogicWeatherSta,2013-01-20 16:10:00,
2013-01-20 11:15:00,28.9,15.8,29.81,SW,225,7.0,-999.0,57,0.00,,,0.01,MetarLogicWeatherSta,2013-01-20 16:15:00,
2013-01-20 11:20:00,28.8,15.9,29.82,SW,225,9.0,-999.0,58,0.00,,,0.01,MetarLogicWeatherSta,2013-01-20 16:20:00,
2013-01-20 11:25:00,28.4,16.2,29.82,WSW,247,12.0,-999.0,59,0.00,,,0.01,MetarLogicWeatherSta,2013-01-20 16:25:00,
2013-01-20 11:30:00,27.7,15.3,29.82,WSW,247,7.0,-999.0,59,0.00,,,0.01,MetarLogicWeatherSta,2013-01-20 16:30:00,
2013-01-20 11:35:00,27.5,15.4,29.82,SW,225,9.0,-999.0,60,0.00,,,0.01,MetarLogicWeatherSta,2013-01-20 16:35:00,
2013-01-20 11:40:00,27.6,14.9,29.82,SSW,202,6.0,-999.0,58,0.00,,,0.01,MetarLogicWeatherSta,2013-01-20 16:40:00,
2013-01-20 11:45:00,28.5,14.4,29.82,WSW,247,10.0,-999.0,55,0.00,,,0.01,MetarLogicWeatherSta,2013-01-20 16:45:00,
2013-01-20 11:50:00,28.4,13.7,29.82,SW,225,12.0,-999.0,53,0.00,,,0.01,MetarLogicWeatherSta,2013-01-20 16:50:00,
2013-01-20 11:55:00,27.9,13.4,29.82,SSW,202,10.0,-999.0,54,0.00,,,0.01,MetarLogicWeatherSta,2013-01-20 16:55:00,
2013-01-20 12:00:00,27.3,13.2,29.83,SW,225,12.0,-999.0,55,0.00,,,0.01,MetarLogicWeatherSta,2013-01-20 17:00:00,
2013-01-20 12:05:00,27.3,13.9,29.82,SW,225,9.0,-999.0,56,0.00,,,0.01,MetarLogicWeatherSta,2013-01-20 17:05:00,
2013-01-20 12:10:00,27.2,13.8,29.82,WSW,247,6.0,-999.0,56,0.00,,,0.01,MetarLogicWeatherSta,2013-01-20 17:10:00,
2013-01-20 12:15:00,27.0,12.9,29.83,SW,225,9.0,-999.0,55,0.00,,,0.01,MetarLogicWeatherSta,2013-01-20 17:15:00,
2013-01-20 12:20:00,27.0,13.1,29.84,SW,225,13.0,-999.0,55,0.00,,,0.01,MetarLogicWeatherSta,2013-01-20 17:20:00,
2013-01-20 12:25:00,26.5,13.4,29.84,SW,225,4.0,-999.0,57,0.00,,,0.01,MetarLogicWeatherSta,2013-01-20 17:25:00,
2013-01-20 12:30:00,26.4,13.1,29.84,SW,225,7.0,-999.0,56,0.00,,,0.01,MetarLogicWeatherSta,2013-01-20 17:30:00,
2013-01-20 12:35:00,26.1,12.7,29.85,West,270,6.0,-999.0,56,0.00,,,0.01,MetarLogicWeatherSta,2013-01-20 17:35:00,
2013-01-20 12:40:00,26.1,11.2,29.85,SW,225,9.0,-999.0,53,0.00,,,0.01,MetarLogicWeatherSta,2013-01-20 17:40:00,
2013-01-20 12:45:00,26.0,11.4,29.86,SW,225,13.0,-999.0,53,0.00,,,0.01,MetarLogicWeatherSta,2013-01-20 17:45:00,
2013-01-20 12:50:00,25.9,10.8,29.86,SSW,202,9.0,-999.0,52,0.00,,,0.01,MetarLogicWeatherSta,2013-01-20 17:50:00,
2013-01-20 12:55:00,26.1,10.3,29.86,SW,225,7.0,-999.0,50,0.00,,,0.01,MetarLogicWeatherSta,2013-01-20 17:55:00,
2013-01-20 13:00:00,26.6,10.9,29.86,SW,225,7.0,-999.0,51,0.00,,,0.01,MetarLogicWeatherSta,2013-01-20 18:00:00,
2013-01-20 13:05:00,26.5,10.0,29.87,WSW,247,9.0,-999.0,49,0.00,,,0.01,MetarLogicWeatherSta,2013-01-20 18:05:00,
2013-01-20 13:10:00,26.3,10.6,29.86,West,270,9.0,-999.0,51,0.00,,,0.01,MetarLogicWeatherSta,2013-01-20 18:10:00,
2013-01-20 13:15:00,26.6,11.7,29.87,SW,225,7.0,-999.0,53,0.00,,,0.01,MetarLogicWeatherSta,2013-01-20 18:15:00,
2013-01-20 13:20:00,26.9,11.1,29.86,South,180,9.0,-999.0,51,0.00,,,0.01,MetarLogicWeatherSta,2013-01-20 18:20:00,
2013-01-20 13:25:00,27.3,11.9,29.87,SSW,202,9.0,-999.0,51,0.00,,,0.01,MetarLogicWeatherSta,2013-01-20 18:25:00,
2013-01-20 13:30:00,27.5,12.3,29.87,SW,225,7.0,-999.0,52,0.00,,,0.01,MetarLogicWeatherSta,2013-01-20 18:30:00,
2013-01-20 13:35:00,27.6,11.9,29.88,SW,225,9.0,-999.0,51,0.00,,,0.01,MetarLogicWeatherSta,2013-01-20 18:35:00,
2013-01-20 13:40:00,27.3,11.2,29.88,SW,225,6.0,-999.0,50,0.00,,,0.01,MetarLogicWeatherSta,2013-01-20 18:40:00,
2013-01-20 13:45:00,26.8,11.2,29.88,SW,225,7.0,-999.0,51,0.00,,,0.01,MetarLogicWeatherSta,2013-01-20 18:45:00,
2013-01-20 13:50:00,26.1,10.9,29.88,WSW,247,4.0,-999.0,52,0.00,,,0.01,MetarLogicWeatherSta,2013-01-20 18:50:00,
2013-01-20 13:55:00,26.0,11.5,29.90,SW,225,4.0,-999.0,54,0.00,,,0.01,MetarLogicWeatherSta,2013-01-20 18:55:00,
2013-01-20 14:00:00,25.9,10.7,29.90,WSW,247,7.0,-999.0,52,0.00,,,0.01,MetarLogicWeatherSta,2013-01-20 19:00:00,
2013-01-20 14:05:00,25.8,11.4,29.90,SW,225,4.0,-999.0,54,0.00,,,0.01,MetarLogicWeatherSta,2013-01-20 19:05:00,
2013-01-20 14:10:00,25.8,11.2,29.91,SW,225,6.0,-999.0,53,0.00,,,0.01,MetarLogicWeatherSta,2013-01-20 19:10:00,
2013-01-20 14:15:00,25.8,11.4,29.91,SSW,202,12.0,-999.0,54,0.00,,,0.01,MetarLogicWeatherSta,2013-01-20 19:15:00,
2013-01-20 14:20:00,25.5,11.7,29.91,WSW,247,7.0,-999.0,55,0.00,,,0.01,MetarLogicWeatherSta,2013-01-20 19:20:00,
2013-01-20 14:25:00,25.5,11.5,29.91,SW,225,6.0,-999.0,55,0.00,,,0.01,MetarLogicWeatherSta,2013-01-20 19:25:00,
2013-01-20 14:30:00,25.3,11.4,29.92,WSW,247,10.0,-999.0,55,0.00,,,0.01,MetarLogicWeatherSta,2013-01-20 19:30:00,
2013-01-20 14:35:00,25.1,11.9,29.92,SW,225,4.0,-999.0,57,0.00,,,0.01,MetarLogicWeatherSta,2013-01-20 19:35:00,
2013-01-20 14:40:00,25.2,12.4,29.92,South,180,3.0,-999.0,58,0.00,,,0.01,MetarLogicWeatherSta,2013-01-20 19:40:00,
2013-01-20 14:45:00,25.3,12.8,29.92,SSW,202,10.0,-999.0,58,0.00,,,0.01,MetarLogicWeatherSta,2013-01-20 19:45:00,
2013-01-20 14:50:00,25.3,12.1,29.92,SW,225,7.0,-999.0,57,0.00,,,0.01,MetarLogicWeatherSta,2013-01-20 19:50:00,
2013-01-20 14:55:00,25.4,12.7,29.92,SW,225,7.0,-999.0,58,0.00,,,0.01,MetarLogicWeatherSta,2013-01-20 19:55:00,
2013-01-20 15:00:00,25.4,12.1,29.92,SSW,202,3.0,-999.0,56,0.00,,,0.01,MetarLogicWeatherSta,2013-01-20 20:00:00,
2013-01-20 15:05:00,25.5,12.5,29.94,South,180,1.0,-999.0,57,0.00,,,0.01,MetarLogicWeatherSta,2013-01-20 20:05:00,
2013-01-20 15:10:00,25.4,12.4,29.94,SE,135,3.0,-999.0,57,0.00,,,0.01,MetarLogicWeatherSta,2013-01-20 20:10:00,
2013-01-20 15:15:00,25.3,12.3,29.94,SSW,202,7.0,-999.0,57,0.00,,,0.01,MetarLogicWeatherSta,2013-01-20 20:15:00,
2013-01-20 15:20:00,25.4,12.8,29.93,SE,135,6.0,-999.0,58,0.00,,,0.01,MetarLogicWeatherSta,2013-01-20 20:20:00,
2013-01-20 15:25:00,25.2,12.9,29.94,SW,225,4.0,-999.0,59,0.00,,,0.01,MetarLogicWeatherSta,2013-01-20 20:25:00,
2013-01-20 15:30:00,25.1,12.9,29.94,West,270,7.0,-999.0,59,0.00,,,0.01,MetarLogicWeatherSta,2013-01-20 20:30:00,
2013-01-20 15:35:00,24.7,13.3,29.94,SW,225,7.0,-999.0,61,0.00,,,0.01,MetarLogicWeatherSta,2013-01-20 20:35:00,
2013-01-20 15:40:00,24.4,13.6,29.95,WSW,247,7.0,-999.0,63,0.00,,,0.01,MetarLogicWeatherSta,2013-01-20 20:40:00,
2013-01-20 15:45:00,24.5,14.1,29.95,SW,225,9.0,-999.0,64,0.00,,,0.01,MetarLogicWeatherSta,2013-01-20 20:45:00,
2013-01-20 15:50:00,24.1,14.1,29.95,SW,225,6.0,-999.0,65,0.00,,,0.01,MetarLogicWeatherSta,2013-01-20 20:50:00,
2013-01-20 15:55:00,23.8,14.6,29.95,SW,225,3.0,-999.0,67,0.00,,,0.01,MetarLogicWeatherSta,2013-01-20 20:55:00,
2013-01-20 16:01:00,23.7,14.8,29.95,SW,225,7.0,-999.0,68,0.00,,,0.01,MetarLogicWeatherSta,2013-01-20 21:01:00,
2013-01-20 16:06:00,23.5,14.4,29.95,SW,225,6.0,-999.0,68,0.00,,,0.01,MetarLogicWeatherSta,2013-01-20 21:06:00,
2013-01-20 16:11:00,23.1,14.7,29.95,SW,225,3.0,-999.0,70,0.00,,,0.01,MetarLogicWeatherSta,2013-01-20 21:11:00,
2013-01-20 16:16:00,22.8,14.3,29.94,SW,225,4.0,-999.0,69,0.00,,,0.01,MetarLogicWeatherSta,2013-01-20 21:16:00,
2013-01-20 16:21:00,22.9,14.1,29.95,SSW,202,4.0,-999.0,68,0.00,,,0.01,MetarLogicWeatherSta,2013-01-20 21:21:00,
2013-01-20 16:26:00,23.1,14.3,29.95,SW,225,4.0,-999.0,68,0.00,,,0.01,MetarLogicWeatherSta,2013-01-20 21:26:00,
2013-01-20 16:31:00,23.0,13.7,29.96,WSW,247,4.0,-999.0,67,0.00,,,0.01,MetarLogicWeatherSta,2013-01-20 21:31:00,
2013-01-20 16:36:00,23.3,13.5,29.96,SW,225,3.0,-999.0,65,0.00,,,0.01,MetarLogicWeatherSta,2013-01-20 21:36:00,
2013-01-20 16:41:00,23.6,13.9,29.96,WSW,247,1.0,-999.0,66,0.00,,,0.01,MetarLogicWeatherSta,2013-01-20 21:41:00,
2013-01-20 16:46:00,23.7,13.9,29.96,SW,225,4.0,-999.0,66,0.00,,,0.01,MetarLogicWeatherSta,2013-01-20 21:46:00,
2013-01-20 16:51:00,23.6,13.9,29.96,SSW,202,3.0,-999.0,66,0.00,,,0.01,MetarLogicWeatherSta,2013-01-20 21:51:00,
2013-01-20 16:56:00,23.3,13.5,29.96,SW,225,4.0,-999.0,65,0.00,,,0.01,MetarLogicWeatherSta,2013-01-20 21:56:00,
2013-01-20 17:01:00,23.4,13.3,29.97,West,270,3.0,-999.0,65,0.00,,,0.01,MetarLogicWeatherSta,2013-01-20 22:01:00,
2013-01-20 17:06:00,23.5,13.5,29.98,SSE,157,1.0,-999.0,65,0.00,,,0.01,MetarLogicWeatherSta,2013-01-20 22:06:00,
2013-01-20 17:11:00,23.1,13.4,29.98,SSE,157,3.0,-999.0,66,0.00,,,0.01,MetarLogicWeatherSta,2013-01-20 22:11:00,
2013-01-20 17:16:00,23.2,13.5,29.98,SSW,202,1.0,-999.0,66,0.00,,,0.01,MetarLogicWeatherSta,2013-01-20 22:16:00,
2013-01-20 17:21:00,23.0,13.7,29.98,SW,225,3.0,-999.0,67,0.00,,,0.01,MetarLogicWeatherSta,2013-01-20 22:21:00,
2013-01-20 17:26:00,22.9,13.6,29.98,SW,225,3.0,-999.0,67,0.00,,,0.01,MetarLogicWeatherSta,2013-01-20 22:26:00,
2013-01-20 17:31:00,22.7,14.3,29.98,WNW,292,3.0,-999.0,69,0.00,,,0.01,MetarLogicWeatherSta,2013-01-20 22:31:00,
2013-01-20 17:36:00,22.5,14.8,29.99,SW,225,3.0,-999.0,72,0.00,,,0.01,MetarLogicWeatherSta,2013-01-20 22:36:00,
2013-01-20 17:41:00,22.5,14.4,29.99,SSW,202,6.0,-999.0,71,0.00,,,0.01,MetarLogicWeatherSta,2013-01-20 22:41:00,
2013-01-20 17:46:00,22.4,13.4,29.99,SW,225,4.0,-999.0,67,0.00,,,0.01,MetarLogicWeatherSta,2013-01-20 22:46:00,
2013-01-20 17:51:00,22.5,13.7,29.99,WSW,247,9.0,-999.0,68,0.00,,,0.01,MetarLogicWeatherSta,2013-01-20 22:51:00,
2013-01-20 17:56:00,22.3,13.2,29.99,SSW,202,3.0,-999.0,67,0.00,,,0.01,MetarLogicWeatherSta,2013-01-20 22:56:00,
2013-01-20 18:01:00,22.6,12.9,29.99,WSW,247,10.0,-999.0,66,0.00,,,0.01,MetarLogicWeatherSta,2013-01-20 23:01:00,
2013-01-20 18:06:00,22.4,12.1,29.99,SW,225,7.0,-999.0,64,0.00,,,0.01,MetarLogicWeatherSta,2013-01-20 23:06:00,
2013-01-20 18:11:00,22.2,12.3,30.00,South,180,6.0,-999.0,65,0.00,,,0.01,MetarLogicWeatherSta,2013-01-20 23:11:00,
2013-01-20 18:16:00,22.3,12.6,30.00,WSW,247,7.0,-999.0,66,0.00,,,0.01,MetarLogicWeatherSta,2013-01-20 23:16:00,
2013-01-20 18:21:00,22.3,12.2,30.00,SW,225,3.0,-999.0,65,0.00,,,0.01,MetarLogicWeatherSta,2013-01-20 23:21:00,
2013-01-20 18:26:00,22.2,11.8,30.01,West,270,3.0,-999.0,63,0.00,,,0.01,MetarLogicWeatherSta,2013-01-20 23:26:00,
2013-01-20 18:31:00,22.2,10.9,30.01,SW,225,7.0,-999.0,61,0.00,,,0.01,MetarLogicWeatherSta,2013-01-20 23:31:00,
2013-01-20 18:36:00,21.9,11.2,30.01,SW,225,7.0,-999.0,63,0.00,,,0.01,MetarLogicWeatherSta,2013-01-20 23:36:00,
2013-01-20 18:41:00,21.9,11.6,30.02,WSW,247,6.0,-999.0,64,0.00,,,0.01,MetarLogicWeatherSta,2013-01-20 23:41:00,
2013-01-20 18:46:00,21.8,11.5,30.02,SSW,202,4.0,-999.0,64,0.00,,,0.01,MetarLogicWeatherSta,2013-01-20 23:46:00,
2013-01-20 18:51:00,21.8,11.2,30.02,SW,225,6.0,-999.0,63,0.00,,,0.01,MetarLogicWeatherSta,2013-01-20 23:51:00,
2013-01-20 18:56:00,21.7,11.4,30.02,SSW,202,4.0,-999.0,64,0.00,,,0.01,MetarLogicWeatherSta,2013-01-20 23:56:00,
2013-01-20 19:01:00,21.7,11.6,30.03,SW,225,4.0,-999.0,64,0.00,,,0.01,MetarLogicWeatherSta,2013-01-21 00:01:00,
2013-01-20 19:06:00,21.4,11.1,30.03,South,180,6.0,-999.0,64,0.00,,,0.01,MetarLogicWeatherSta,2013-01-21 00:06:00,
2013-01-20 19:11:00,21.4,10.9,30.03,SW,225,6.0,-999.0,63,0.00,,,0.01,MetarLogicWeatherSta,2013-01-21 00:11:00,
2013-01-20 19:16:00,21.5,11.5,30.03,SSE,157,4.0,-999.0,64,0.00,,,0.01,MetarLogicWeatherSta,2013-01-21 00:16:00,
2013-01-20 19:21:00,21.4,11.8,30.03,SW,225,4.0,-999.0,66,0.00,,,0.01,MetarLogicWeatherSta,2013-01-21 00:21:00,
2013-01-20 19:26:00,21.1,11.9,30.03,WSW,247,4.0,-999.0,67,0.00,,,0.01,MetarLogicWeatherSta,2013-01-21 00:26:00,
2013-01-20 19:31:00,21.1,12.1,30.03,SSW,202,7.0,-999.0,67,0.00,,,0.01,MetarLogicWeatherSta,2013-01-21 00:31:00,
2013-01-20 19:36:00,21.4,12.3,30.03,SSW,202,4.0,-999.0,67,0.00,,,0.01,MetarLogicWeatherSta,2013-01-21 00:36:00,
2013-01-20 19:41:00,21.4,12.1,30.03,SW,225,6.0,-999.0,67,0.00,,,0.01,MetarLogicWeatherSta,2013-01-21 00:41:00,
2013-01-20 19:46:00,21.1,12.3,30.04,SW,225,4.0,-999.0,68,0.00,,,0.01,MetarLogicWeatherSta,2013-01-21 00:46:00,
2013-01-20 19:51:00,20.9,11.8,30.04,SW,225,4.0,-999.0,67,0.00,,,0.01,MetarLogicWeatherSta,2013-01-21 00:51:00,
2013-01-20 19:56:00,20.8,11.8,30.03,SW,225,4.0,-999.0,68,0.00,,,0.01,MetarLogicWeatherSta,2013-01-21 00:56:00,
2013-01-20 20:01:00,20.6,11.7,30.04,SW,225,7.0,-999.0,68,0.00,,,0.01,MetarLogicWeatherSta,2013-01-21 01:01:00,
2013-01-20 20:06:00,20.4,11.6,30.04,SW,225,1.0,-999.0,68,0.00,,,0.01,MetarLogicWeatherSta,2013-01-21 01:06:00,
2013-01-20 20:11:00,20.4,11.7,30.04,SW,225,4.0,-999.0,68,0.00,,,0.01,MetarLogicWeatherSta,2013-01-21 01:11:00,
2013-01-20 20:16:00,20.2,11.2,30.04,WSW,247,6.0,-999.0,67,0.00,,,0.01,MetarLogicWeatherSta,2013-01-21 01:16:00,
2013-01-20 20:21:00,20.4,11.2,30.04,SSW,202,4.0,-999.0,67,0.00,,,0.01,MetarLogicWeatherSta,2013-01-21 01:21:00,
2013-01-20 20:26:00,20.3,11.3,30.04,SW,225,7.0,-999.0,67,0.00,,,0.01,MetarLogicWeatherSta,2013-01-21 01:26:00,
2013-01-20 20:31:00,20.4,10.8,30.04,SW,225,4.0,-999.0,66,0.00,,,0.01,MetarLogicWeatherSta,2013-01-21 01:31:00,
2013-01-20 20:36:00,20.2,10.8,30.05,WSW,247,4.0,-999.0,66,0.00,,,0.01,MetarLogicWeatherSta,2013-01-21 01:36:00,
2013-01-20 20:41:00,20.1,10.0,30.04,SW,225,4.0,-999.0,64,0.00,,,0.01,MetarLogicWeatherSta,2013-01-21 01:41:00,
2013-01-20 20:46:00,20.3,10.7,30.04,SW,225,6.0,-999.0,65,0.00,,,0.01,MetarLogicWeatherSta,2013-01-21 01:46:00,
2013-01-20 20:51:00,20.1,10.3,30.03,SW,225,3.0,-999.0,65,0.00,,,0.01,MetarLogicWeatherSta,2013-01-21 01:51:00,
2013-01-20 20:56:00,19.9,10.5,30.03,WSW,247,3.0,-999.0,66,0.00,,,0.01,MetarLogicWeatherSta,2013-01-21 01:56:00,
2013-01-20 21:01:00,19.6,10.8,30.03,SW,225,4.0,-999.0,68,0.00,,,0.01,MetarLogicWeatherSta,2013-01-21 02:01:00,
2013-01-20 21:06:00,19.5,10.8,30.04,WSW,247,3.0,-999.0,68,0.00,,,0.01,MetarLogicWeatherSta,2013-01-21 02:06:00,
2013-01-20 21:11:00,19.3,11.3,30.04,WSW,247,9.0,-999.0,70,0.00,,,0.01,MetarLogicWeatherSta,2013-01-21 02:11:00,
2013-01-20 21:16:00,19.2,11.1,30.04,SW,225,4.0,-999.0,70,0.00,,,0.01,MetarLogicWeatherSta,2013-01-21 02:16:00,
2013-01-20 21:21:00,19.1,11.0,30.05,SSW,202,4.0,-999.0,70,0.00,,,0.01,MetarLogicWeatherSta,2013-01-21 02:21:00,
2013-01-20 21:26:00,19.3,11.4,30.05,SW,225,4.0,-999.0,71,0.00,,,0.01,MetarLogicWeatherSta,2013-01-21 02:26:00,
2013-01-20 21:31:00,19.1,11.4,30.05,SSW,202,3.0,-999.0,71,0.00,,,0.01,MetarLogicWeatherSta,2013-01-21 02:31:00,
2013-01-20 21:36:00,19.0,11.4,30.05,SSW,202,7.0,-999.0,71,0.00,,,0.01,MetarLogicWeatherSta,2013-01-21 02:36:00,
2013-01-20 21:41:00,19.0,11.4,30.05,SW,225,7.0,-999.0,71,0.00,,,0.01,MetarLogicWeatherSta,2013-01-21 02:41:00,
2013-01-20 21:46:00,18.9,10.9,30.05,South,180,1.0,-999.0,70,0.00,,,0.01,MetarLogicWeatherSta,2013-01-21 02:46:00,
2013-01-20 21:51:00,19.0,10.6,30.05,SW,225,3.0,-999.0,69,0.00,,,0.01,MetarLogicWeatherSta,2013-01-21 02:51:00,
2013-01-20 21:56:00,19.1,10.3,30.05,SW,225,6.0,-999.0,68,0.00,,,0.01,MetarLogicWeatherSta,2013-01-21 02:56:00,
2013-01-20 22:01:00,19.2,9.8,30.05,SW,225,1.0,-999.0,66,0.00,,,0.01,MetarLogicWeatherSta,2013-01-21 03:01:00,
2013-01-20 22:06:00,19.1,9.6,30.05,WSW,247,6.0,-999.0,66,0.00,,,0.01,MetarLogicWeatherSta,2013-01-21 03:06:00,
2013-01-20 22:11:00,19.0,9.0,30.05,SSW,202,6.0,-999.0,64,0.00,,,0.01,MetarLogicWeatherSta,2013-01-21 03:11:00,
2013-01-20 22:16:00,18.7,9.2,30.05,SW,225,4.0,-999.0,66,0.00,,,0.01,MetarLogicWeatherSta,2013-01-21 03:16:00,
2013-01-20 22:21:00,18.8,8.8,30.05,SSW,202,4.0,-999.0,64,0.00,,,0.01,MetarLogicWeatherSta,2013-01-21 03:21:00,
2013-01-20 22:26:00,18.6,8.5,30.06,SW,225,3.0,-999.0,64,0.00,,,0.01,MetarLogicWeatherSta,2013-01-21 03:26:00,
2013-01-20 22:31:00,18.5,8.3,30.05,South,180,1.0,-999.0,64,0.00,,,0.01,MetarLogicWeatherSta,2013-01-21 03:31:00,
2013-01-20 22:36:00,18.3,7.8,30.06,SSW,202,1.0,-999.0,63,0.00,,,0.01,MetarLogicWeatherSta,2013-01-21 03:36:00,
2013-01-20 22:41:00,18.1,7.8,30.06,WSW,247,6.0,-999.0,63,0.00,,,0.01,MetarLogicWeatherSta,2013-01-21 03:41:00,
2013-01-20 22:46:00,18.3,8.2,30.06,South,180,3.0,-999.0,64,0.00,,,0.01,MetarLogicWeatherSta,2013-01-21 03:46:00,
2013-01-20 22:51:00,18.0,7.9,30.06,SW,225,3.0,-999.0,64,0.00,,,0.01,MetarLogicWeatherSta,2013-01-21 03:51:00,
2013-01-20 22:56:00,17.9,7.9,30.05,South,180,0.0,-999.0,64,0.00,,,0.01,MetarLogicWeatherSta,2013-01-21 03:56:00,
2013-01-20 23:01:00,17.8,8.0,30.06,WSW,247,3.0,-999.0,65,0.00,,,0.01,MetarLogicWeatherSta,2013-01-21 04:01:00,
2013-01-20 23:06:00,17.4,7.2,30.05,SSW,202,4.0,-999.0,64,0.00,,,0.01,MetarLogicWeatherSta,2013-01-21 04:06:00,
2013-01-20 23:11:00,17.5,7.5,30.05,SW,225,4.0,-999.0,64,0.00,,,0.01,MetarLogicWeatherSta,2013-01-21 04:11:00,
2013-01-20 23:16:00,17.5,7.1,30.05,SW,225,3.0,-999.0,63,0.00,,,0.01,MetarLogicWeatherSta,2013-01-21 04:16:00,
2013-01-20 23:21:00,17.5,7.0,30.05,SW,225,3.0,-999.0,63,0.00,,,0.01,MetarLogicWeatherSta,2013-01-21 04:21:00,
2013-01-20 23:26:00,17.2,7.2,30.05,SSW,202,1.0,-999.0,64,0.00,,,0.01,MetarLogicWeatherSta,2013-01-21 04:26:00,
2013-01-20 23:31:00,17.5,7.3,30.05,SW,225,3.0,-999.0,64,0.00,,,0.01,MetarLogicWeatherSta,2013-01-21 04:31:00,
2013-01-20 23:36:00,17.7,7.6,30.05,SW,225,3.0,-999.0,64,0.00,,,0.01,MetarLogicWeatherSta,2013-01-21 04:36:00,
2013-01-20 23:41:00,17.6,7.5,30.05,WSW,247,3.0,-999.0,64,0.00,,,0.01,MetarLogicWeatherSta,2013-01-21 04:41:00,
2013-01-20 23:46:00,17.9,8.2,30.05,WSW,247,3.0,-999.0,65,0.00,,,0.01,MetarLogicWeatherSta,2013-01-21 04:46:00,
2013-01-20 23:51:00,17.9,8.2,30.05,SW,225,4.0,-999.0,65,0.00,,,0.01,MetarLogicWeatherSta,2013-01-21 04:51:00,
2013-01-20 23:56:00,17.9,8.0,30.05,SW,225,6.0,-999.0,64,0.00,,,0.01,MetarLogicWeatherSta,2013-01-21 04:56:00,